contact:dominique.lefevre@mio.osupytheas.fr, maurice.libes@osupytheas.fr, didier.mallarino@osupytheas.fr
Project:EMSO http://www.emso-fr.org/EMSO-France
Depth: 2436.0 m
Title:EMSO Ligure Ouest : Data MII capteur MICROCAT
DateTime_Computer,Latitude,Longitude,Temperature,Conductivity,Pressure,DateTime_Instrument
DateTime_Computer,Latitude,Longitude,degC,S m-1,dbar,DateTime_Instrument
2017-11-17T00:01:10Z,42.805,6.029,13.2968,4.60027,2471.987,2017-11-17T02:02:38Z
2017-11-17T00:04:13Z,42.805,6.029,13.2980,4.60003,2471.957,2017-11-17T02:05:41Z
2017-11-17T00:07:16Z,42.805,6.029,13.2989,4.60016,2471.979,2017-11-17T02:08:44Z
2017-11-17T00:10:19Z,42.805,6.029,13.2965,4.60041,2471.964,2017-11-17T02:11:47Z
2017-11-17T00:13:22Z,42.805,6.029,13.2975,4.60052,2471.964,2017-11-17T02:14:50Z
2017-11-17T00:16:25Z,42.805,6.029,13.2957,4.60016,2471.979,2017-11-17T02:17:52Z
2017-11-17T00:19:28Z,42.805,6.029,13.2968,4.60031,2471.957,2017-11-17T02:20:55Z
2017-11-17T00:22:31Z,42.805,6.029,13.2990,4.60033,2471.964,2017-11-17T02:23:58Z
2017-11-17T00:25:34Z,42.805,6.029,13.2962,4.60010,2471.957,2017-11-17T02:27:01Z
2017-11-17T00:28:36Z,42.805,6.029,13.2971,4.60046,2471.942,2017-11-17T02:30:04Z
2017-11-17T00:31:39Z,42.805,6.029,13.2973,4.60038,2471.964,2017-11-17T02:33:07Z
2017-11-17T00:34:42Z,42.805,6.029,13.2986,4.60017,2471.957,2017-11-17T02:36:10Z
2017-11-17T00:37:45Z,42.805,6.029,13.2982,4.60039,2471.942,2017-11-17T02:39:13Z
2017-11-17T00:40:48Z,42.805,6.029,13.2974,4.60045,2471.957,2017-11-17T02:42:16Z
2017-11-17T00:43:51Z,42.805,6.029,13.2984,4.60009,2471.979,2017-11-17T02:45:18Z
2017-11-17T00:46:54Z,42.805,6.029,13.2976,4.60007,2471.994,2017-11-17T02:48:21Z
2017-11-17T00:49:57Z,42.805,6.029,13.2980,4.60035,2471.957,2017-11-17T02:51:24Z
2017-11-17T00:53:00Z,42.805,6.029,13.2957,4.60026,2471.979,2017-11-17T02:54:27Z
2017-11-17T00:56:03Z,42.805,6.029,13.2968,4.60016,2471.957,2017-11-17T02:57:30Z
2017-11-17T00:59:05Z,42.805,6.029,13.2970,4.60015,2471.957,2017-11-17T03:00:33Z
2017-11-17T01:02:08Z,42.805,6.029,13.2980,4.60018,2471.979,2017-11-17T03:03:36Z
2017-11-17T01:05:11Z,42.805,6.029,13.2973,4.60012,2471.979,2017-11-17T03:06:39Z
2017-11-17T01:08:14Z,42.805,6.029,13.2958,4.60018,2471.957,2017-11-17T03:09:42Z
2017-11-17T01:11:17Z,42.805,6.029,13.2976,4.59988,2471.957,2017-11-17T03:12:44Z
2017-11-17T01:14:20Z,42.805,6.029,13.2951,4.59991,2471.979,2017-11-17T03:15:47Z
2017-11-17T01:17:23Z,42.805,6.029,13.2950,4.59990,2471.934,2017-11-17T03:18:50Z
2017-11-17T01:20:26Z,42.805,6.029,13.2954,4.60009,2471.942,2017-11-17T03:21:53Z
2017-11-17T01:23:29Z,42.805,6.029,13.2968,4.59984,2471.964,2017-11-17T03:24:56Z
2017-11-17T01:26:31Z,42.805,6.029,13.2983,4.59967,2471.979,2017-11-17T03:27:59Z
2017-11-17T01:29:34Z,42.805,6.029,13.2947,4.59981,2471.979,2017-11-17T03:31:02Z
2017-11-17T01:32:37Z,42.805,6.029,13.2945,4.59976,2471.979,2017-11-17T03:34:05Z
2017-11-17T01:35:40Z,42.805,6.029,13.2950,4.59984,2471.979,2017-11-17T03:37:08Z
2017-11-17T01:38:43Z,42.805,6.029,13.2957,4.59974,2471.979,2017-11-17T03:40:10Z
2017-11-17T01:41:46Z,42.805,6.029,13.2949,4.59983,2471.942,2017-11-17T03:43:13Z
2017-11-17T01:44:49Z,42.805,6.029,13.2949,4.59985,2472.002,2017-11-17T03:46:16Z
2017-11-17T01:47:52Z,42.805,6.029,13.2964,4.59978,2471.934,2017-11-17T03:49:19Z
2017-11-17T01:50:55Z,42.805,6.029,13.2962,4.59978,2471.942,2017-11-17T03:52:22Z
2017-11-17T01:53:58Z,42.805,6.029,13.2958,4.59977,2471.964,2017-11-17T03:55:25Z
2017-11-17T01:57:00Z,42.805,6.029,13.2961,4.59990,2471.964,2017-11-17T03:58:28Z
2017-11-17T02:00:03Z,42.805,6.029,13.2966,4.59983,2472.002,2017-11-17T04:01:31Z
2017-11-17T02:03:06Z,42.805,6.029,13.2966,4.59975,2471.957,2017-11-17T04:04:34Z
2017-11-17T02:06:09Z,42.805,6.029,13.2961,4.59978,2471.979,2017-11-17T04:07:37Z
2017-11-17T02:09:12Z,42.805,6.029,13.2965,4.59979,2472.002,2017-11-17T04:10:39Z
2017-11-17T02:12:15Z,42.805,6.029,13.2969,4.59992,2472.002,2017-11-17T04:13:42Z
2017-11-17T02:15:18Z,42.805,6.029,13.2975,4.59989,2471.979,2017-11-17T04:16:45Z
2017-11-17T02:18:21Z,42.805,6.029,13.2973,4.59988,2471.957,2017-11-17T04:19:48Z
2017-11-17T02:21:24Z,42.805,6.029,13.2982,4.59984,2471.987,2017-11-17T04:22:51Z
2017-11-17T02:24:26Z,42.805,6.029,13.2973,4.59986,2471.987,2017-11-17T04:25:54Z
2017-11-17T02:27:29Z,42.805,6.029,13.2976,4.59981,2472.024,2017-11-17T04:28:57Z
2017-11-17T02:30:32Z,42.805,6.029,13.2963,4.59982,2472.002,2017-11-17T04:32:00Z
2017-11-17T02:33:35Z,42.805,6.029,13.2961,4.59979,2472.01,2017-11-17T04:35:03Z
2017-11-17T02:36:38Z,42.805,6.029,13.2962,4.59980,2471.987,2017-11-17T04:38:05Z
2017-11-17T02:39:41Z,42.805,6.029,13.2964,4.59972,2471.987,2017-11-17T04:41:08Z
2017-11-17T02:42:44Z,42.805,6.029,13.2958,4.59975,2472.002,2017-11-17T04:44:11Z
2017-11-17T02:45:47Z,42.805,6.029,13.2962,4.59983,2472.002,2017-11-17T04:47:14Z
2017-11-17T02:48:50Z,42.805,6.029,13.2961,4.59979,2472.002,2017-11-17T04:50:17Z
2017-11-17T02:51:52Z,42.805,6.029,13.2958,4.59980,2471.964,2017-11-17T04:53:20Z
2017-11-17T02:54:55Z,42.805,6.029,13.2964,4.59978,2472.01,2017-11-17T04:56:23Z
2017-11-17T02:57:58Z,42.805,6.029,13.2986,4.59978,2472.024,2017-11-17T04:59:26Z
2017-11-17T03:01:01Z,42.805,6.029,13.2975,4.59983,2472.024,2017-11-17T05:02:29Z
2017-11-17T03:04:04Z,42.805,6.029,13.2963,4.59984,2472.047,2017-11-17T05:05:31Z
2017-11-17T03:07:07Z,42.805,6.029,13.2961,4.59976,2472.047,2017-11-17T05:08:34Z
2017-11-17T03:10:10Z,42.805,6.029,13.2982,4.59983,2472.024,2017-11-17T05:11:37Z
2017-11-17T03:13:13Z,42.805,6.029,13.2968,4.59988,2472.002,2017-11-17T05:14:40Z
2017-11-17T03:16:16Z,42.805,6.029,13.2973,4.59983,2472.047,2017-11-17T05:17:43Z
2017-11-17T03:19:18Z,42.805,6.029,13.2967,4.59977,2472.047,2017-11-17T05:20:46Z
2017-11-17T03:22:21Z,42.805,6.029,13.2966,4.59989,2472.047,2017-11-17T05:23:49Z
2017-11-17T03:25:24Z,42.805,6.029,13.2968,4.59988,2472.032,2017-11-17T05:26:52Z
2017-11-17T03:28:27Z,42.805,6.029,13.2992,4.59986,2472.047,2017-11-17T05:29:55Z
2017-11-17T03:31:30Z,42.805,6.029,13.2965,4.59983,2472.024,2017-11-17T05:32:58Z
2017-11-17T03:34:33Z,42.805,6.029,13.2958,4.59980,2472.047,2017-11-17T05:36:00Z
2017-11-17T03:37:36Z,42.805,6.029,13.2968,4.59978,2472.055,2017-11-17T05:39:03Z
2017-11-17T03:40:39Z,42.805,6.029,13.2971,4.59994,2472.069,2017-11-17T05:42:06Z
2017-11-17T03:43:42Z,42.805,6.029,13.2977,4.59999,2472.032,2017-11-17T05:45:09Z
2017-11-17T03:46:44Z,42.805,6.029,13.2972,4.59985,2472.047,2017-11-17T05:48:12Z
2017-11-17T03:49:47Z,42.805,6.029,13.2975,4.59985,2472.077,2017-11-17T05:51:15Z
2017-11-17T03:52:50Z,42.805,6.029,13.2970,4.60016,2472.069,2017-11-17T05:54:18Z
2017-11-17T03:55:53Z,42.805,6.029,13.2978,4.60007,2472.069,2017-11-17T05:57:21Z
2017-11-17T03:58:56Z,42.805,6.029,13.2988,4.59990,2472.077,2017-11-17T06:00:24Z
2017-11-17T04:01:59Z,42.805,6.029,13.2968,4.59989,2472.092,2017-11-17T06:03:26Z
2017-11-17T04:05:02Z,42.805,6.029,13.2978,4.60026,2472.092,2017-11-17T06:06:29Z
2017-11-17T04:08:05Z,42.805,6.029,13.2969,4.60001,2472.069,2017-11-17T06:09:32Z
2017-11-17T04:11:08Z,42.805,6.029,13.2976,4.59984,2472.115,2017-11-17T06:12:35Z
2017-11-17T04:14:11Z,42.805,6.029,13.2973,4.59986,2472.092,2017-11-17T06:15:38Z
2017-11-17T04:17:13Z,42.805,6.029,13.2976,4.60009,2472.069,2017-11-17T06:18:41Z
2017-11-17T04:20:16Z,42.805,6.029,13.2982,4.60014,2472.077,2017-11-17T06:21:44Z
2017-11-17T04:23:19Z,42.805,6.029,13.2968,4.60000,2472.092,2017-11-17T06:24:47Z
2017-11-17T04:26:22Z,42.805,6.029,13.2970,4.60003,2472.115,2017-11-17T06:27:50Z
2017-11-17T04:29:25Z,42.805,6.029,13.2982,4.59990,2472.115,2017-11-17T06:30:52Z
2017-11-17T04:32:28Z,42.805,6.029,13.2974,4.59989,2472.1,2017-11-17T06:33:55Z
2017-11-17T04:35:31Z,42.805,6.029,13.2982,4.60004,2472.137,2017-11-17T06:36:58Z
2017-11-17T04:38:34Z,42.805,6.029,13.3010,4.60007,2472.1,2017-11-17T06:40:01Z
2017-11-17T04:41:37Z,42.805,6.029,13.2944,4.59983,2472.1,2017-11-17T06:43:04Z
2017-11-17T04:44:39Z,42.805,6.029,13.2970,4.60007,2472.123,2017-11-17T06:46:07Z
2017-11-17T04:47:42Z,42.805,6.029,13.2973,4.59998,2472.115,2017-11-17T06:49:10Z
2017-11-17T04:50:45Z,42.805,6.029,13.2988,4.59992,2472.115,2017-11-17T06:52:13Z
2017-11-17T04:53:48Z,42.805,6.029,13.2940,4.59990,2472.115,2017-11-17T06:55:16Z
2017-11-17T04:56:51Z,42.805,6.029,13.2945,4.59990,2472.115,2017-11-17T06:58:18Z
2017-11-17T04:59:54Z,42.805,6.029,13.2950,4.60005,2472.123,2017-11-17T07:01:21Z
2017-11-17T05:02:57Z,42.805,6.029,13.2940,4.60002,2472.137,2017-11-17T07:04:24Z
2017-11-17T05:06:00Z,42.805,6.029,13.2950,4.60000,2472.123,2017-11-17T07:07:27Z
2017-11-17T05:09:03Z,42.805,6.029,13.2941,4.60007,2472.115,2017-11-17T07:10:30Z
2017-11-17T05:12:05Z,42.805,6.029,13.2942,4.59995,2472.123,2017-11-17T07:13:33Z
2017-11-17T05:15:08Z,42.805,6.029,13.2938,4.59972,2472.137,2017-11-17T07:16:36Z
2017-11-17T05:18:11Z,42.805,6.029,13.2939,4.59988,2472.16,2017-11-17T07:19:39Z
2017-11-17T05:21:14Z,42.805,6.029,13.2940,4.59968,2472.137,2017-11-17T07:22:42Z
2017-11-17T05:24:17Z,42.805,6.029,13.2942,4.59961,2472.137,2017-11-17T07:25:45Z
2017-11-17T05:27:20Z,42.805,6.029,13.2939,4.59963,2472.137,2017-11-17T07:28:47Z
2017-11-17T05:30:23Z,42.805,6.029,13.2940,4.59964,2472.16,2017-11-17T07:31:50Z
2017-11-17T05:33:26Z,42.805,6.029,13.2938,4.59964,2472.137,2017-11-17T07:34:53Z
2017-11-17T05:36:29Z,42.805,6.029,13.2938,4.59959,2472.16,2017-11-17T07:37:56Z
2017-11-17T05:39:32Z,42.805,6.029,13.2938,4.59961,2472.16,2017-11-17T07:40:59Z
2017-11-17T05:42:34Z,42.805,6.029,13.2939,4.59964,2472.123,2017-11-17T07:44:02Z
2017-11-17T05:45:37Z,42.805,6.029,13.2937,4.59961,2472.137,2017-11-17T07:47:05Z
2017-11-17T05:48:40Z,42.805,6.029,13.2939,4.59961,2472.182,2017-11-17T07:50:08Z
2017-11-17T05:51:43Z,42.805,6.029,13.2939,4.59964,2472.123,2017-11-17T07:53:11Z
2017-11-17T05:54:46Z,42.805,6.029,13.2936,4.59963,2472.137,2017-11-17T07:56:13Z
2017-11-17T05:57:49Z,42.805,6.029,13.2936,4.59962,2472.137,2017-11-17T07:59:16Z
2017-11-17T06:00:52Z,42.805,6.029,13.2937,4.59964,2472.145,2017-11-17T08:02:19Z
2017-11-17T06:03:55Z,42.805,6.029,13.2939,4.59963,2472.145,2017-11-17T08:05:22Z
2017-11-17T06:06:58Z,42.805,6.029,13.2939,4.59967,2472.145,2017-11-17T08:08:25Z
2017-11-17T06:10:00Z,42.805,6.029,13.2933,4.59964,2472.205,2017-11-17T08:11:28Z
2017-11-17T06:13:03Z,42.805,6.029,13.2940,4.59964,2472.137,2017-11-17T08:14:31Z
2017-11-17T06:16:06Z,42.805,6.029,13.2938,4.59965,2472.137,2017-11-17T08:17:34Z
2017-11-17T06:19:09Z,42.805,6.029,13.2940,4.59963,2472.145,2017-11-17T08:20:37Z
2017-11-17T06:22:12Z,42.805,6.029,13.2937,4.59963,2472.16,2017-11-17T08:23:39Z
2017-11-17T06:25:15Z,42.805,6.029,13.2939,4.59961,2472.137,2017-11-17T08:26:42Z
2017-11-17T06:28:18Z,42.805,6.029,13.2939,4.59964,2472.16,2017-11-17T08:29:45Z
2017-11-17T06:31:21Z,42.805,6.029,13.2940,4.59964,2472.16,2017-11-17T08:32:48Z
2017-11-17T06:34:24Z,42.805,6.029,13.2938,4.59961,2472.145,2017-11-17T08:35:51Z
2017-11-17T06:37:26Z,42.805,6.029,13.2936,4.59962,2472.137,2017-11-17T08:38:54Z
2017-11-17T06:40:29Z,42.805,6.029,13.2940,4.59962,2472.182,2017-11-17T08:41:57Z
2017-11-17T06:43:32Z,42.805,6.029,13.2939,4.59961,2472.123,2017-11-17T08:45:00Z
2017-11-17T06:46:35Z,42.805,6.029,13.2938,4.59961,2472.145,2017-11-17T08:48:03Z
2017-11-17T06:49:38Z,42.805,6.029,13.2940,4.59963,2472.16,2017-11-17T08:51:06Z
2017-11-17T06:52:41Z,42.805,6.029,13.2939,4.59962,2472.16,2017-11-17T08:54:08Z
2017-11-17T06:55:44Z,42.805,6.029,13.2937,4.59962,2472.168,2017-11-17T08:57:11Z
2017-11-17T06:58:47Z,42.805,6.029,13.2939,4.59962,2472.182,2017-11-17T09:00:14Z
2017-11-17T07:01:50Z,42.805,6.029,13.2939,4.59963,2472.145,2017-11-17T09:03:17Z
2017-11-17T07:04:52Z,42.805,6.029,13.2939,4.59964,2472.168,2017-11-17T09:06:20Z
2017-11-17T07:07:55Z,42.805,6.029,13.2937,4.59964,2472.145,2017-11-17T09:09:23Z
2017-11-17T07:10:58Z,42.805,6.029,13.2941,4.59967,2472.182,2017-11-17T09:12:26Z
2017-11-17T07:14:01Z,42.805,6.029,13.2940,4.59964,2472.168,2017-11-17T09:15:29Z
2017-11-17T07:17:04Z,42.805,6.029,13.2938,4.59965,2472.145,2017-11-17T09:18:32Z
2017-11-17T07:20:07Z,42.805,6.029,13.2936,4.59963,2472.16,2017-11-17T09:21:34Z
2017-11-17T07:23:10Z,42.805,6.029,13.2939,4.59964,2472.168,2017-11-17T09:24:37Z
2017-11-17T07:26:13Z,42.805,6.029,13.2937,4.59964,2472.182,2017-11-17T09:27:40Z
2017-11-17T07:29:16Z,42.805,6.029,13.2938,4.59964,2472.168,2017-11-17T09:30:43Z
2017-11-17T07:32:18Z,42.805,6.029,13.2939,4.59964,2472.137,2017-11-17T09:33:46Z
2017-11-17T07:35:21Z,42.805,6.029,13.2939,4.59961,2472.16,2017-11-17T09:36:49Z
2017-11-17T07:38:24Z,42.805,6.029,13.2937,4.59962,2472.137,2017-11-17T09:39:52Z
2017-11-17T07:41:27Z,42.805,6.029,13.2940,4.59964,2472.1,2017-11-17T09:42:55Z
2017-11-17T07:44:30Z,42.805,6.029,13.2938,4.59964,2472.115,2017-11-17T09:45:58Z
2017-11-17T07:47:33Z,42.805,6.029,13.2937,4.59961,2472.1,2017-11-17T09:49:00Z
2017-11-17T07:50:36Z,42.805,6.029,13.2938,4.59963,2472.1,2017-11-17T09:52:03Z
2017-11-17T07:53:39Z,42.805,6.029,13.2938,4.59965,2472.16,2017-11-17T09:55:06Z
2017-11-17T07:56:42Z,42.805,6.029,13.2940,4.59961,2472.145,2017-11-17T09:58:09Z
2017-11-17T07:59:45Z,42.805,6.029,13.2937,4.59965,2472.137,2017-11-17T10:01:12Z
2017-11-17T08:02:47Z,42.805,6.029,13.2941,4.59963,2472.123,2017-11-17T10:04:15Z
2017-11-17T08:05:50Z,42.805,6.029,13.2938,4.59961,2472.16,2017-11-17T10:07:18Z
2017-11-17T08:08:53Z,42.805,6.029,13.2939,4.59963,2472.16,2017-11-17T10:10:21Z
2017-11-17T08:11:56Z,42.805,6.029,13.2939,4.59960,2472.137,2017-11-17T10:13:24Z
2017-11-17T08:14:59Z,42.805,6.029,13.2940,4.59960,2472.145,2017-11-17T10:16:26Z
2017-11-17T08:18:02Z,42.805,6.029,13.2939,4.59967,2472.137,2017-11-17T10:19:29Z
2017-11-17T08:21:05Z,42.805,6.029,13.2935,4.59960,2472.137,2017-11-17T10:22:32Z
2017-11-17T08:24:08Z,42.805,6.029,13.2943,4.59964,2472.123,2017-11-17T10:25:35Z
2017-11-17T08:27:11Z,42.805,6.029,13.2937,4.59964,2472.145,2017-11-17T10:28:39Z
2017-11-17T08:30:14Z,42.805,6.029,13.2945,4.59963,2472.115,2017-11-17T10:31:42Z
2017-11-17T08:33:17Z,42.805,6.029,13.2951,4.59960,2472.1,2017-11-17T10:34:45Z
2017-11-17T08:36:20Z,42.805,6.029,13.2943,4.59959,2472.137,2017-11-17T10:37:48Z
2017-11-17T08:39:23Z,42.805,6.029,13.2939,4.59961,2472.123,2017-11-17T10:40:50Z
2017-11-17T08:42:26Z,42.805,6.029,13.2940,4.59970,2472.137,2017-11-17T10:43:53Z
2017-11-17T08:45:29Z,42.805,6.029,13.2941,4.59962,2472.077,2017-11-17T10:46:56Z
2017-11-17T08:48:32Z,42.805,6.029,13.2947,4.59958,2472.145,2017-11-17T10:49:59Z
2017-11-17T08:51:35Z,42.805,6.029,13.2942,4.59958,2472.137,2017-11-17T10:53:02Z
2017-11-17T08:54:37Z,42.805,6.029,13.2940,4.59958,2472.1,2017-11-17T10:56:05Z
2017-11-17T08:57:40Z,42.805,6.029,13.2938,4.59960,2472.1,2017-11-17T10:59:08Z
2017-11-17T09:00:43Z,42.805,6.029,13.2940,4.59973,2472.16,2017-11-17T11:02:11Z
2017-11-17T09:03:46Z,42.805,6.029,13.2944,4.59958,2472.115,2017-11-17T11:05:14Z
2017-11-17T09:06:49Z,42.805,6.029,13.2939,4.59959,2472.1,2017-11-17T11:08:16Z
2017-11-17T09:09:52Z,42.805,6.029,13.2942,4.59958,2472.137,2017-11-17T11:11:19Z
2017-11-17T09:12:55Z,42.805,6.029,13.2939,4.59958,2472.137,2017-11-17T11:14:22Z
2017-11-17T09:15:58Z,42.805,6.029,13.2940,4.59961,2472.137,2017-11-17T11:17:25Z
2017-11-17T09:19:01Z,42.805,6.029,13.2939,4.59961,2472.1,2017-11-17T11:20:28Z
2017-11-17T09:22:03Z,42.805,6.029,13.2941,4.59958,2472.092,2017-11-17T11:23:31Z
2017-11-17T09:25:06Z,42.805,6.029,13.2940,4.59959,2472.1,2017-11-17T11:26:34Z
2017-11-17T09:28:09Z,42.805,6.029,13.2935,4.59958,2472.115,2017-11-17T11:29:37Z
2017-11-17T09:31:12Z,42.805,6.029,13.2940,4.59958,2472.115,2017-11-17T11:32:40Z
2017-11-17T09:34:15Z,42.805,6.029,13.2939,4.59960,2472.115,2017-11-17T11:35:43Z
2017-11-17T09:37:18Z,42.805,6.029,13.2939,4.59959,2472.092,2017-11-17T11:38:45Z
2017-11-17T09:40:21Z,42.805,6.029,13.2939,4.59958,2472.069,2017-11-17T11:41:48Z
2017-11-17T09:43:24Z,42.805,6.029,13.2937,4.59958,2472.1,2017-11-17T11:44:51Z
2017-11-17T09:46:27Z,42.805,6.029,13.2935,4.59958,2472.077,2017-11-17T11:47:54Z
2017-11-17T09:49:30Z,42.805,6.029,13.2938,4.59958,2472.115,2017-11-17T11:50:57Z
2017-11-17T09:52:32Z,42.805,6.029,13.2938,4.59963,2472.115,2017-11-17T11:54:00Z
2017-11-17T09:55:35Z,42.805,6.029,13.2941,4.59959,2472.092,2017-11-17T11:57:03Z
2017-11-17T09:58:38Z,42.805,6.029,13.2939,4.59958,2472.092,2017-11-17T12:00:06Z
2017-11-17T10:01:41Z,42.805,6.029,13.2939,4.59958,2472.092,2017-11-17T12:03:09Z
2017-11-17T10:04:44Z,42.805,6.029,13.2939,4.59958,2472.069,2017-11-17T12:06:12Z
2017-11-17T10:07:47Z,42.805,6.029,13.2938,4.59958,2472.055,2017-11-17T12:09:14Z
2017-11-17T10:10:50Z,42.805,6.029,13.2941,4.59961,2472.069,2017-11-17T12:12:17Z
2017-11-17T10:13:53Z,42.805,6.029,13.2939,4.59958,2472.092,2017-11-17T12:15:20Z
2017-11-17T10:16:56Z,42.805,6.029,13.2940,4.59958,2472.092,2017-11-17T12:18:23Z
2017-11-17T10:19:59Z,42.805,6.029,13.2937,4.59959,2472.069,2017-11-17T12:21:26Z
2017-11-17T10:23:01Z,42.805,6.029,13.2934,4.59958,2472.092,2017-11-17T12:24:29Z
2017-11-17T10:26:04Z,42.805,6.029,13.2943,4.59958,2472.069,2017-11-17T12:27:32Z
2017-11-17T10:29:07Z,42.805,6.029,13.2936,4.59958,2472.047,2017-11-17T12:30:35Z
2017-11-17T10:32:10Z,42.805,6.029,13.2934,4.59958,2472.092,2017-11-17T12:33:38Z
2017-11-17T10:35:13Z,42.805,6.029,13.2939,4.59958,2472.092,2017-11-17T12:36:40Z
2017-11-17T10:38:16Z,42.805,6.029,13.2940,4.59958,2472.055,2017-11-17T12:39:43Z
2017-11-17T10:41:19Z,42.805,6.029,13.2936,4.59958,2472.047,2017-11-17T12:42:46Z
2017-11-17T10:44:22Z,42.805,6.029,13.2941,4.59958,2472.055,2017-11-17T12:45:49Z
2017-11-17T10:47:25Z,42.805,6.029,13.2938,4.59958,2472.047,2017-11-17T12:48:52Z
2017-11-17T10:50:27Z,42.805,6.029,13.2937,4.59957,2472.055,2017-11-17T12:51:55Z
2017-11-17T10:53:30Z,42.805,6.029,13.2936,4.59958,2472.055,2017-11-17T12:54:58Z
2017-11-17T10:56:33Z,42.805,6.029,13.2940,4.59967,2472.069,2017-11-17T12:58:01Z
2017-11-17T10:59:36Z,42.805,6.029,13.2932,4.59958,2472.024,2017-11-17T13:01:04Z
2017-11-17T11:02:39Z,42.805,6.029,13.2933,4.59957,2472.047,2017-11-17T13:04:07Z
2017-11-17T11:05:42Z,42.805,6.029,13.2938,4.59958,2472.047,2017-11-17T13:07:09Z
2017-11-17T11:08:45Z,42.805,6.029,13.2937,4.59957,2472.069,2017-11-17T13:10:12Z
2017-11-17T11:11:48Z,42.805,6.029,13.2936,4.59960,2472.069,2017-11-17T13:13:15Z
2017-11-17T11:14:51Z,42.805,6.029,13.2940,4.59958,2472.069,2017-11-17T13:16:18Z
2017-11-17T11:17:54Z,42.805,6.029,13.2937,4.59958,2472.032,2017-11-17T13:19:21Z
2017-11-17T11:20:56Z,42.805,6.029,13.2937,4.59960,2472.01,2017-11-17T13:22:24Z
2017-11-17T11:23:59Z,42.805,6.029,13.2945,4.59961,2472.047,2017-11-17T13:25:27Z
2017-11-17T11:27:02Z,42.805,6.029,13.2939,4.59958,2472.032,2017-11-17T13:28:30Z
2017-11-17T11:30:05Z,42.805,6.029,13.2935,4.59957,2472.047,2017-11-17T13:31:33Z
2017-11-17T11:33:08Z,42.805,6.029,13.2938,4.59956,2472.055,2017-11-17T13:34:36Z
2017-11-17T11:36:11Z,42.805,6.029,13.2939,4.59958,2472.024,2017-11-17T13:37:38Z
2017-11-17T11:39:14Z,42.805,6.029,13.2936,4.59959,2472.024,2017-11-17T13:40:41Z
2017-11-17T11:42:17Z,42.805,6.029,13.2935,4.59961,2472.047,2017-11-17T13:43:44Z
2017-11-17T11:45:20Z,42.805,6.029,13.2933,4.59957,2472.047,2017-11-17T13:46:47Z
2017-11-17T11:48:22Z,42.805,6.029,13.2944,4.59961,2472.047,2017-11-17T13:49:50Z
2017-11-17T11:51:25Z,42.805,6.029,13.2936,4.59957,2472.01,2017-11-17T13:52:53Z
2017-11-17T11:54:28Z,42.805,6.029,13.2942,4.59960,2472.01,2017-11-17T13:55:56Z
2017-11-17T11:57:31Z,42.805,6.029,13.2950,4.59978,2472.01,2017-11-17T13:58:59Z
2017-11-17T12:00:34Z,42.805,6.029,13.2936,4.59964,2472.01,2017-11-17T14:02:02Z
2017-11-17T12:03:37Z,42.805,6.029,13.2943,4.59958,2472.024,2017-11-17T14:05:05Z
2017-11-17T12:06:40Z,42.805,6.029,13.2937,4.59958,2472.01,2017-11-17T14:08:07Z
2017-11-17T12:09:43Z,42.805,6.029,13.2940,4.59958,2471.964,2017-11-17T14:11:10Z
2017-11-17T12:12:46Z,42.805,6.029,13.2944,4.59977,2472.002,2017-11-17T14:14:13Z
2017-11-17T12:15:49Z,42.805,6.029,13.2945,4.59974,2472.047,2017-11-17T14:17:16Z
2017-11-17T12:18:51Z,42.805,6.029,13.2957,4.59998,2472.002,2017-11-17T14:20:19Z
2017-11-17T12:21:54Z,42.805,6.029,13.2957,4.59990,2472.024,2017-11-17T14:23:22Z
2017-11-17T12:24:57Z,42.805,6.029,13.2945,4.59994,2472.01,2017-11-17T14:26:25Z
2017-11-17T12:28:00Z,42.805,6.029,13.2940,4.59972,2472.002,2017-11-17T14:29:28Z
2017-11-17T12:31:03Z,42.805,6.029,13.2935,4.59958,2472.002,2017-11-17T14:32:31Z
2017-11-17T12:34:06Z,42.805,6.029,13.2958,4.60006,2471.979,2017-11-17T14:35:33Z
2017-11-17T12:37:09Z,42.805,6.029,13.2957,4.59992,2472.016,2017-11-17T14:38:36Z
2017-11-17T12:40:12Z,42.805,6.029,13.2949,4.59982,2472.024,2017-11-17T14:41:39Z
2017-11-17T12:43:15Z,42.805,6.029,13.2957,4.60011,2471.979,2017-11-17T14:44:42Z
2017-11-17T12:46:18Z,42.805,6.029,13.2958,4.60001,2472.002,2017-11-17T14:47:45Z
2017-11-17T12:49:20Z,42.805,6.029,13.2949,4.59994,2471.979,2017-11-17T14:50:48Z
2017-11-17T12:52:23Z,42.805,6.029,13.2958,4.60023,2471.979,2017-11-17T14:53:51Z
2017-11-17T12:55:26Z,42.805,6.029,13.2948,4.60004,2471.994,2017-11-17T14:56:54Z
2017-11-17T12:58:29Z,42.805,6.029,13.2954,4.60008,2472.002,2017-11-17T14:59:57Z
2017-11-17T13:01:32Z,42.805,6.029,13.2950,4.60010,2471.964,2017-11-17T15:03:00Z
2017-11-17T13:04:35Z,42.805,6.029,13.2958,4.59987,2472.002,2017-11-17T15:06:02Z
2017-11-17T13:07:38Z,42.805,6.029,13.2951,4.59993,2472.002,2017-11-17T15:09:05Z
2017-11-17T13:10:41Z,42.805,6.029,13.2948,4.59979,2471.987,2017-11-17T15:12:08Z
2017-11-17T13:13:44Z,42.805,6.029,13.2948,4.59995,2471.979,2017-11-17T15:15:11Z
2017-11-17T13:16:46Z,42.805,6.029,13.2944,4.59965,2472.002,2017-11-17T15:18:14Z
2017-11-17T13:19:49Z,42.805,6.029,13.2944,4.59975,2471.942,2017-11-17T15:21:17Z
2017-11-17T13:22:52Z,42.805,6.029,13.2951,4.59984,2471.987,2017-11-17T15:24:20Z
2017-11-17T13:25:55Z,42.805,6.029,13.2948,4.59975,2471.979,2017-11-17T15:27:23Z
2017-11-17T13:28:58Z,42.805,6.029,13.2945,4.59972,2472.002,2017-11-17T15:30:26Z
2017-11-17T13:32:01Z,42.805,6.029,13.2942,4.59971,2472.002,2017-11-17T15:33:28Z
2017-11-17T13:35:04Z,42.805,6.029,13.2941,4.59966,2471.964,2017-11-17T15:36:31Z
2017-11-17T13:38:07Z,42.805,6.029,13.2947,4.59969,2472.002,2017-11-17T15:39:34Z
2017-11-17T13:41:10Z,42.805,6.029,13.2943,4.59972,2472.002,2017-11-17T15:42:37Z
2017-11-17T13:44:13Z,42.805,6.029,13.2943,4.59966,2472.024,2017-11-17T15:45:40Z
2017-11-17T13:47:15Z,42.805,6.029,13.2944,4.59975,2471.979,2017-11-17T15:48:43Z
2017-11-17T13:50:18Z,42.805,6.029,13.2945,4.59964,2472.002,2017-11-17T15:51:46Z
2017-11-17T13:53:21Z,42.805,6.029,13.2950,4.59998,2471.987,2017-11-17T15:54:49Z
2017-11-17T13:56:24Z,42.805,6.029,13.2950,4.59973,2472.002,2017-11-17T15:57:52Z
2017-11-17T13:59:27Z,42.805,6.029,13.2950,4.59972,2471.987,2017-11-17T16:00:55Z
2017-11-17T14:02:30Z,42.805,6.029,13.2947,4.59977,2471.964,2017-11-17T16:03:57Z
2017-11-17T14:05:33Z,42.805,6.029,13.2949,4.59980,2471.979,2017-11-17T16:07:00Z
2017-11-17T14:08:36Z,42.805,6.029,13.2945,4.59972,2472.002,2017-11-17T16:10:03Z
2017-11-17T14:11:39Z,42.805,6.029,13.2953,4.59972,2472.002,2017-11-17T16:13:06Z
2017-11-17T14:14:42Z,42.805,6.029,13.2954,4.59981,2471.979,2017-11-17T16:16:09Z
2017-11-17T14:17:44Z,42.805,6.029,13.2950,4.59985,2471.979,2017-11-17T16:19:12Z
2017-11-17T14:20:47Z,42.805,6.029,13.2943,4.59982,2472.002,2017-11-17T16:22:15Z
2017-11-17T14:23:50Z,42.805,6.029,13.2948,4.59984,2472.002,2017-11-17T16:25:18Z
2017-11-17T14:26:53Z,42.805,6.029,13.2951,4.59984,2472.002,2017-11-17T16:28:21Z
2017-11-17T14:29:56Z,42.805,6.029,13.2950,4.59983,2472.002,2017-11-17T16:31:24Z
2017-11-17T14:32:59Z,42.805,6.029,13.2951,4.59978,2472.002,2017-11-17T16:34:26Z
2017-11-17T14:36:02Z,42.805,6.029,13.2950,4.59987,2472.002,2017-11-17T16:37:29Z
2017-11-17T14:39:05Z,42.805,6.029,13.2951,4.59985,2472.032,2017-11-17T16:40:32Z
2017-11-17T14:42:08Z,42.805,6.029,13.2948,4.59989,2472.01,2017-11-17T16:43:35Z
2017-11-17T14:45:11Z,42.805,6.029,13.2948,4.59989,2471.987,2017-11-17T16:46:38Z
2017-11-17T14:48:13Z,42.805,6.029,13.2947,4.59994,2472.002,2017-11-17T16:49:41Z
2017-11-17T14:51:16Z,42.805,6.029,13.2951,4.59988,2472.01,2017-11-17T16:52:44Z
2017-11-17T14:54:19Z,42.805,6.029,13.2946,4.59981,2472.01,2017-11-17T16:55:47Z
2017-11-17T14:57:22Z,42.805,6.029,13.2946,4.59977,2472.024,2017-11-17T16:58:50Z